Location: College Park
(38.9810°N, 76.9370°W)
Time: 04:37:18

Tiangong 2 - Pass Details

Date: 11 March 2018
Orbit: 383 x 388 km, 42.8° (Epoch: 20 March)

Event Time Altitude Azimuth Distance (km) Brightness Sun altitude
Exits shadow 05:34:20 10° 154° (SSE) 1,379 4.0 -22.2°
Maximum altitude 05:35:01 11° 141° (SE) 1,350 4.1 -22.1°
Drops below altitude 10° 05:35:56 10° 124° (SE) 1,407 4.4 -21.9°
Sets 05:39:18 0° 86° (E) 2,267 6.5 -21.3°
